User: anonymous   Login
Location: Chakepay
(13.3931°S, 72.1925°W)
Time: 17:56:54
(UTC+00:00)
Language:

Cosmos 2219 Rocket - Orbit

View from above orbital plane
View from above orbital plane
View from above satellite
View from above satellite

Ground track
Ground track

The orbit data is extracted from the following two-line orbital elements,

1 22220U 92076B   20024.58761863 +.00000092 +00000-0 +70493-4 0  9992
2 22220 070.9978 216.5337 0015111 263.8639 151.7643 14.16449248405169
Epoch (UTC): 24 January 2020 14:06:10
Eccentricity: 0.0015111
inclination: 70.9978°
perigee height: 826 km
apogee height: 848 km
right ascension of ascending node: 216.5337°
argument of perigee: 263.8639°
revolutions per day: 14.16449248
mean anomaly at epoch: 151.7643°
orbit number at epoch: 40516

The dashed part of the orbit path shows where the satellite is in the earth's shadow,  

DLR